Wind_Speed
23 23 23 24 25 24 23 22 21 19 17 17 18 18 18 17 18 19 20 23 28 31 31 32 31 29 26 25 26 27 28 28 27 26 25 25 25 25 25 25 25 26
24 24 24 24 24 23 22 21 19 16 15 16 17 17 16 16 18 19 21 27 31 32 33 34 33 28 24 23 25 28 30 31 29 27 25 25 25 26 26 26 26 26
25 24 24 24 23 22 20 18 15 13 13 15 16 16 16 17 19 20 24 29 30 29 30 31 30 24 21 22 27 31 33 33 31 28 26 26 27 27 27 27 26 27
24 24 24 23 22 20 17 13 11 11 13 13 13 14 16 18 19 21 25 27 27 27 26 25 25 24 22 25 30 32 33 32 30 27 27 28 29 29 29 29 29 29
24 24 23 22 20 16 11 9 9 11 11 10 9 12 18 20 19 19 22 24 25 25 25 24 24 24 25 28 30 31 30 29 27 26 26 28 29 30 30 30 31 32
24 23 21 19 14 9 7 7 9 11 11 10 11 15 19 20 17 17 18 20 22 23 24 25 25 25 26 28 29 30 29 28 28 28 28 29 29 29 30 29 29 31
22 20 17 13 7 4 4 6 10 12 12 11 12 15 16 17 16 15 17 18 20 21 22 23 25 26 26 27 29 30 30 31 31 32 32 31 31 31 31 31 30 31
20 16 11 6 2 2 5 7 10 12 12 12 13 13 15 16 16 16 17 18 19 20 21 22 23 25 26 27 29 30 32 33 34 35 35 34 33 33 32 32 33 34
15 10 6 4 3 5 6 9 11 11 11 11 11 12 14 16 16 16 17 18 19 21 21 22 23 25 27 28 29 30 32 33 34 36 37 37 37 36 36 35 35 35
9 5 4 4 5 6 8 10 11 11 10 10 9 10 13 15 16 17 18 19 20 21 22 23 24 26 28 30 30 31 31 32 33 34 36 38 39 39 38 38 38 38
6 3 4 6 6 6 8 10 11 11 11 10 11 12 13 15 16 17 18 19 21 23 24 25 26 28 31 32 33 33 33 33 33 33 35 37 39 40 39 39 39 39
6 4 6 7 6 6 8 9 10 11 12 12 13 14 16 17 18 18 18 21 24 26 27 27 28 30 33 35 36 37 38 37 36 36 37 38 39 40 39 39 38 38
7 6 8 9 7 5 6 8 9 10 12 14 16 18 19 20 22 23 23 24 27 30 31 31 31 33 36 38 39 40 42 42 40 38 38 39 39 39 39 38 38 37
7 8 9 9 7 5 5 7 10 13 15 18 20 21 23 25 26 27 28 28 30 33 35 35 35 36 39 41 41 42 44 45 43 39 38 39 39 39 39 38 37 36
8 8 9 8 7 7 8 11 14 17 19 21 22 24 25 28 29 30 31 30 31 36 39 40 40 40 42 44 44 43 45 47 46 42 39 39 39 38 38 37 37 37
8 7 8 8 8 10 13 15 17 19 21 23 24 26 28 30 32 34 35 34 35 39 42 43 45 45 45 47 47 47 47 49 49 45 41 39 38 37 37 36 36 37
9 9 10 9 10 13 16 18 19 21 24 26 27 29 30 32 34 36 38 39 41 43 44 45 47 47 47 49 50 50 50 52 52 48 42 39 37 35 35 35 37 38
12 13 14 13 14 16 18 19 21 24 27 29 30 30 32 34 36 37 39 41 43 46 47 47 47 48 49 49 50 52 52 54 53 47 41 38 35 33 33 34 37 38
15 16 17 16 16 18 19 20 23 26 29 31 32 32 33 35 37 38 40 42 44 47 49 49 49 50 51 50 51 52 54 55 51 44 39 36 33 32 33 34 36 38
15 16 16 17 19 21 22 24 26 28 31 32 33 33 34 36 38 40 42 44 46 48 49 50 50 52 53 53 52 52 54 53 47 41 36 32 31 32 33 35 37 37
17 17 18 20 23 24 26 28 29 31 33 34 35 36 36 38 40 41 44 46 48 48 49 49 50 52 53 53 51 51 51 48 43 37 32 30 30 32 33 36 37 36
19 21 22 24 26 28 30 32 33 34 36 37 38 38 38 40 42 43 45 48 49 47 46 49 51 51 51 52 50 48 46 42 37 32 29 29 31 32 34 37 37 34
23 24 25 27 29 32 34 35 36 37 38 39 40 40 40 41 43 45 47 49 49 47 48 52 53 51 50 49 46 42 39 35 31 29 28 30 32 33 36 38 37 34
26 27 29 31 33 35 37 38 39 40 41 42 42 41 42 43 45 46 48 48 48 47 48 51 51 48 46 42 37 34 33 31 30 29 30 32 33 34 37 39 39 37
30 31 33 35 37 39 40 41 41 42 44 46 45 44 44 44 46 48 49 47 46 46 47 49 47 44 39 35 32 31 32 32 31 32 32 34 35 36 38 40 40 40
33 35 37 39 40 41 42 43 44 45 47 49 49 48 47 46 48 50 48 46 45 46 47 47 45 40 36 34 33 33 33 33 33 33 35 36 37 37 39 40 40 40
Wind_Direction
259 262 265 268 271 275 278 284 291 299 308 313 315 322 334 346 350 348 346 346 343 338 334 329 318 307 301 304 308 310 311 311 309 305 301 299 297 292 286 281 280 280
258 261 265 267 271 274 279 286 296 307 317 322 326 334 339 339 340 342 344 343 341 339 336 335 329 313 299 303 314 317 316 315 312 308 301 296 294 293 289 284 282 282
258 261 264 267 271 276 284 293 305 321 331 333 337 342 340 336 338 342 345 348 348 345 340 340 341 333 315 314 321 322 320 317 313 307 300 294 290 288 287 285 283 284
257 260 262 266 273 281 292 307 326 338 342 340 344 354 353 347 343 345 352 357 359 357 353 351 354 351 340 332 329 327 324 321 316 308 302 298 295 291 289 286 283 283
254 258 262 268 278 290 310 335 343 343 342 334 332 342 345 344 341 344 354 359 1 5 4 1 0 359 353 346 341 338 336 333 330 325 320 316 311 304 298 292 285 281
253 258 265 274 287 307 340 350 339 337 334 320 311 320 332 340 344 347 349 350 355 2 3 0 358 357 355 352 347 343 341 339 337 335 333 330 326 320 313 306 296 288
256 263 272 282 298 323 340 342 336 339 342 335 326 327 338 349 354 354 348 343 347 352 354 355 354 352 351 350 347 342 338 335 333 333 333 332 329 326 321 315 307 298
262 270 280 287 295 304 316 332 340 343 345 345 343 345 353 360 359 356 348 342 343 344 345 346 348 349 347 345 344 341 337 333 331 330 330 329 327 324 320 317 311 304
270 282 298 302 299 306 321 337 346 348 347 350 356 355 356 357 356 354 349 342 340 339 338 340 342 344 344 343 341 338 334 330 328 327 326 326 325 323 321 319 315 310
274 295 313 313 310 319 335 346 350 350 352 354 353 348 347 348 349 351 350 344 340 336 335 336 337 340 342 342 341 338 334 327 322 320 321 322 323 322 321 320 318 315
263 287 296 303 317 334 342 349 348 345 343 340 337 337 337 339 342 346 346 343 341 338 336 335 336 338 340 341 341 340 338 332 325 319 317 318 320 321 320 320 319 317
265 288 289 299 323 340 337 342 347 344 340 340 343 343 339 336 337 340 340 340 339 337 336 337 337 337 338 337 337 337 339 337 331 325 320 318 318 319 319 319 318 316
272 285 288 299 314 327 333 341 348 349 348 350 352 350 346 339 335 335 336 334 334 334 336 337 338 337 336 335 334 334 335 335 332 327 322 318 317 318 318 318 317 316
267 273 283 295 301 313 334 341 343 345 346 347 347 345 341 336 333 335 335 333 332 333 335 337 336 336 335 333 332 331 331 331 330 326 321 318 316 316 318 318 316 315
259 267 277 283 292 310 326 332 336 338 338 339 338 336 334 331 330 331 329 329 331 331 332 334 334 333 332 330 328 327 327 327 327 324 320 317 314 313 315 316 315 314
243 252 256 265 288 307 316 323 330 333 334 334 332 331 328 325 327 327 322 322 327 327 326 327 328 329 329 326 324 324 323 323 324 322 318 315 312 309 311 313 312 312
232 237 242 253 279 298 308 316 323 327 328 327 326 325 324 323 324 324 320 321 326 326 324 324 323 324 324 322 321 321 320 320 320 318 315 313 310 305 306 308 309 309
235 241 248 258 276 293 304 311 318 323 323 322 320 319 319 321 322 322 321 323 324 325 325 324 322 321 321 319 319 318 317 317 316 314 312 310 305 301 302 305 306 307
249 252 256 266 282 296 305 312 317 320 320 320 320 318 317 318 318 320 321 321 321 321 322 322 321 320 319 318 316 315 314 313 312 311 310 306 301 299 300 302 304 304
266 267 268 280 295 302 308 313 316 317 316 316 317 316 316 316 316 317 317 316 316 315 315 317 318 316 315 314 312 311 311 311 310 310 308 303 299 298 300 301 302 302
277 282 286 294 302 305 309 311 312 311 310 310 311 312 313 313 314 315 314 311 310 310 311 314 315 314 314 312 309 308 309 308 308 308 305 300 298 299 300 301 302 303
282 287 293 297 301 303 305 305 306 306 305 306 307 307 309 310 310 311 310 307 308 312 313 312 311 312 312 310 307 306 306 306 307 307 303 299 299 300 300 302 302 303
283 288 292 294 296 298 298 298 300 301 301 302 302 302 303 306 306 305 304 305 308 313 313 312 312 312 309 306 305 304 304 307 309 308 304 301 302 302 301 302 303 302
282 286 288 290 292 292 291 293 295 296 296 296 295 295 296 299 302 302 301 304 308 311 312 313 315 313 309 306 305 305 307 311 311 309 306 303 303 302 302 303 304 304
280 282 284 286 286 287 289 290 291 291 291 290 289 289 289 291 295 296 296 301 308 310 311 313 315 313 310 308 307 309 311 312 310 308 305 303 303 303 302 303 305 305
277 278 279 282 284 287 289 289 289 289 290 290 290 291 288 286 288 290 293 301 307 309 311 313 314 312 310 309 310 311 311 310 307 306 305 304 304 303 303 304 304 304
Height
5907 5907 5908 5908 5907 5908 5909 5910 5911 5912 5913 5914 5913 5913 5913 5912 5911 5910 5908 5907 5905 5902 5900 5897 5895 5894 5893 5892 5891 5891 5890 5889 5889 5887 5886 5886 5886 5885 5885 5884 5883 5883
5905 5905 5905 5905 5905 5906 5908 5909 5910 5912 5912 5912 5912 5912 5911 5910 5909 5908 5906 5905 5903 5900 5897 5894 5891 5889 5889 5889 5889 5888 5887 5886 5885 5885 5884 5883 5882 5882 5881 5881 5880 5879
5902 5903 5903 5903 5904 5905 5907 5908 5910 5911 5911 5911 5911 5910 5909 5908 5906 5905 5904 5902 5900 5898 5896 5893 5889 5887 5888 5888 5888 5886 5884 5882 5881 5880 5880 5879 5878 5878 5877 5877 5877 5876
5900 5900 5901 5901 5902 5904 5906 5908 5909 5910 5910 5910 5909 5908 5907 5906 5904 5903 5902 5900 5899 5897 5895 5892 5890 5888 5888 5887 5886 5884 5882 5880 5878 5877 5876 5875 5875 5875 5874 5874 5873 5872
5897 5898 5899 5900 5902 5904 5906 5907 5908 5908 5908 5908 5907 5906 5905 5904 5903 5901 5900 5899 5898 5896 5894 5892 5890 5888 5887 5886 5884 5882 5881 5879 5878 5877 5876 5874 5873 5872 5872 5871 5870 5869
5895 5896 5898 5900 5902 5904 5905 5906 5906 5906 5906 5905 5904 5903 5902 5902 5900 5899 5898 5897 5896 5894 5893 5892 5890 5888 5886 5885 5884 5882 5881 5879 5878 5876 5875 5873 5872 5870 5869 5868 5867 5866
5894 5895 5897 5899 5901 5902 5904 5904 5904 5904 5903 5902 5902 5901 5900 5899 5898 5897 5896 5895 5894 5893 5892 5890 5889 5887 5885 5884 5883 5881 5880 5878 5876 5874 5873 5871 5870 5868 5866 5865 5864 5863
5893 5895 5897 5899 5900 5901 5902 5902 5902 5902 5901 5900 5899 5898 5897 5897 5896 5895 5894 5893 5892 5891 5890 5889 5888 5886 5884 5882 5880 5879 5877 5875 5873 5871 5870 5868 5867 5865 5864 5862 5861 5859
5893 5895 5896 5897 5899 5900 5900 5900 5899 5899 5898 5897 5897 5896 5895 5894 5894 5893 5892 5890 5889 5889 5888 5887 5886 5884 5882 5881 5879 5877 5875 5873 5871 5869 5867 5865 5863 5861 5859 5858 5857 5854
5892 5894 5895 5896 5897 5898 5898 5897 5896 5896 5896 5895 5895 5894 5893 5892 5891 5891 5890 5889 5888 5887 5886 5885 5883 5882 5880 5879 5877 5875 5873 5871 5869 5867 5865 5863 5860 5858 5856 5854 5852 5850
5891 5892 5893 5894 5895 5896 5895 5895 5894 5893 5893 5893 5892 5892 5891 5890 5889 5889 5888 5887 5886 5884 5883 5882 5881 5879 5878 5876 5875 5873 5871 5869 5867 5865 5863 5860 5858 5855 5852 5850 5848 5846
5889 5890 5890 5891 5892 5893 5893 5892 5892 5891 5891 5890 5890 5889 5888 5887 5887 5886 5885 5884 5883 5882 5880 5879 5878 5876 5875 5873 5872 5870 5868 5866 5864 5862 5860 5857 5855 5852 5849 5847 5845 5843
5887 5887 5887 5888 5889 5890 5890 5890 5890 5890 5889 5887 5886 5886 5885 5884 5883 5883 5882 5881 5880 5879 5877 5876 5874 5873 5871 5870 5868 5866 5864 5862 5861 5859 5857 5854 5852 5849 5846 5844 5841 5839
5884 5884 5885 5886 5887 5887 5888 5887 5888 5887 5886 5884 5883 5882 5882 5881 5880 5879 5879 5877 5877 5876 5875 5873 5871 5869 5868 5866 5864 5862 5861 5859 5858 5856 5854 5851 5849 5846 5843 5840 5838 5836
5881 5882 5882 5883 5883 5884 5884 5884 5884 5883 5882 5881 5880 5879 5879 5877 5876 5876 5875 5874 5873 5872 5871 5870 5868 5866 5865 5863 5861 5859 5857 5855 5854 5852 5850 5848 5845 5842 5840 5837 5835 5833
5879 5879 5880 5880 5881 5881 5881 5881 5881 5880 5879 5878 5877 5877 5876 5874 5874 5872 5871 5871 5871 5870 5868 5866 5865 5863 5862 5860 5858 5856 5854 5851 5850 5848 5847 5844 5841 5839 5836 5834 5832 5830
5876 5877 5878 5878 5878 5878 5878 5878 5878 5877 5876 5875 5875 5875 5874 5872 5871 5870 5868 5868 5868 5866 5864 5863 5862 5860 5858 5856 5854 5852 5850 5847 5846 5844 5843 5840 5838 5835 5833 5831 5829 5827
5874 5875 5875 5876 5876 5876 5876 5876 5875 5874 5873 5873 5873 5872 5871 5869 5868 5866 5865 5864 5863 5861 5860 5859 5858 5856 5855 5853 5851 5848 5845 5843 5841 5840 5838 5836 5834 5831 5829 5828 5826 5824
5870 5871 5872 5873 5873 5873 5872 5872 5871 5870 5870 5869 5869 5868 5867 5866 5864 5863 5861 5860 5859 5857 5855 5854 5853 5852 5851 5850 5847 5845 5841 5839 5837 5835 5834 5832 5829 5827 5826 5824 5823 5820
5867 5868 5869 5869 5869 5868 5868 5867 5867 5867 5866 5866 5865 5864 5863 5862 5860 5858 5857 5856 5854 5853 5851 5850 5848 5847 5847 5845 5843 5841 5838 5834 5832 5831 5829 5827 5825 5823 5822 5820 5819 5817
5863 5864 5864 5865 5864 5864 5864 5863 5863 5863 5863 5862 5862 5861 5860 5858 5856 5854 5853 5851 5850 5849 5847 5846 5844 5843 5842 5840 5838 5836 5833 5830 5828 5826 5824 5822 5820 5819 5817 5816 5815 5813
5860 5860 5861 5861 5861 5861 5860 5860 5860 5860 5859 5859 5858 5857 5856 5854 5852 5850 5849 5847 5846 5845 5843 5841 5840 5839 5838 5835 5833 5830 5827 5825 5823 5821 5819 5818 5816 5815 5813 5811 5811 5809
5856 5857 5857 5857 5857 5857 5857 5856 5856 5856 5855 5854 5853 5852 5851 5849 5847 5846 5845 5843 5842 5841 5839 5837 5835 5833 5832 5829 5827 5824 5822 5821 5819 5817 5815 5814 5812 5811 5809 5807 5806 5805
5852 5853 5853 5853 5853 5853 5853 5853 5852 5852 5851 5849 5848 5847 5846 5844 5843 5842 5840 5839 5838 5837 5835 5833 5830 5827 5825 5823 5821 5819 5817 5816 5814 5813 5811 5810 5808 5807 5805 5802 5801 5799
5848 5849 5849 5849 5849 5849 5848 5848 5848 5847 5845 5844 5843 5842 5841 5840 5838 5836 5835 5835 5834 5833 5831 5828 5825 5823 5820 5818 5816 5814 5813 5811 5810 5808 5807 5805 5804 5802 5801 5798 5796 5794
5844 5844 5844 5844 5844 5844 5844 5843 5843 5841 5840 5839 5838 5837 5836 5834 5832 5831 5830 5830 5829 5828 5826 5824 5821 5819 5816 5814 5812 5810 5809 5807 5806 5804 5803 5801 5799 5798 5796 5794 5792 5789